Time,TemperatureF,DewpointF,PressureIn,WindDirection,WindDirectionDegrees,WindSpeedMPH,WindSpeedGustMPH,Humidity,HourlyPrecipIn,Conditions,Clouds,dailyrainin,SoftwareType,DateUTC
2013-07-02 00:03:00,71.0,52.0,30.06,NNE,30,0.0,0.0,51,0.00,,---,0.00,VWS V14.00,2013-07-02 05:03:00,
2013-07-02 00:08:00,70.7,52.8,30.06,NNE,30,0.0,0.0,53,0.00,,---,0.00,VWS V14.00,2013-07-02 05:08:00,
2013-07-02 00:13:00,70.3,52.4,30.06,NNE,29,0.0,0.0,53,0.00,,---,0.00,VWS V14.00,2013-07-02 05:13:00,
2013-07-02 00:18:00,69.9,53.0,30.06,NNE,30,0.0,0.0,55,0.00,,---,0.00,VWS V14.00,2013-07-02 05:18:00,
2013-07-02 00:23:00,69.8,53.4,30.06,NNE,30,0.0,0.0,56,0.00,,---,0.00,VWS V14.00,2013-07-02 05:23:00,
2013-07-02 00:28:00,69.7,53.3,30.05,NNE,29,0.0,0.0,56,0.00,,---,0.00,VWS V14.00,2013-07-02 05:28:00,
2013-07-02 00:34:00,69.3,53.0,30.05,NNE,30,0.0,0.0,56,0.00,,---,0.00,VWS V14.00,2013-07-02 05:34:00,
2013-07-02 00:39:00,68.7,52.9,30.05,NNE,29,0.0,0.0,57,0.00,,---,0.00,VWS V14.00,2013-07-02 05:39:00,
2013-07-02 00:45:00,68.4,53.1,30.05,NNE,30,0.0,0.0,58,0.00,,---,0.00,VWS V14.00,2013-07-02 05:45:00,
2013-07-02 00:50:00,68.5,53.6,30.05,NNE,30,0.0,0.0,59,0.00,,---,0.00,VWS V14.00,2013-07-02 05:50:00,
2013-07-02 00:55:00,68.6,53.7,30.05,NNE,30,0.0,0.0,59,0.00,,---,0.00,VWS V14.00,2013-07-02 05:55:00,
2013-07-02 01:00:00,68.5,53.6,30.04,NNE,30,0.0,0.0,59,0.00,,---,0.00,VWS V14.00,2013-07-02 06:00:00,
2013-07-02 01:05:00,68.0,53.6,30.04,NNE,30,0.0,0.0,60,0.00,,---,0.00,VWS V14.00,2013-07-02 06:05:00,
2013-07-02 01:10:00,67.5,53.6,30.04,NNE,30,0.0,0.0,61,0.00,,---,0.00,VWS V14.00,2013-07-02 06:10:00,
2013-07-02 01:15:00,67.3,53.4,30.04,NNE,30,0.0,0.0,61,0.00,,---,0.00,VWS V14.00,2013-07-02 06:15:00,
2013-07-02 01:21:00,67.5,53.6,30.04,NNE,29,0.0,0.0,61,0.00,,---,0.00,VWS V14.00,2013-07-02 06:21:00,
2013-07-02 01:26:00,67.8,53.4,30.04,NNE,29,0.0,0.0,60,0.00,,---,0.00,VWS V14.00,2013-07-02 06:26:00,
2013-07-02 01:32:00,67.7,53.3,30.04,NNE,30,0.0,0.0,60,0.00,,---,0.00,VWS V14.00,2013-07-02 06:32:00,
2013-07-02 01:37:00,67.6,52.8,30.04,NNE,30,0.0,0.0,59,0.00,,---,0.00,VWS V14.00,2013-07-02 06:37:00,
2013-07-02 01:42:00,67.5,53.1,30.04,NNE,30,0.0,0.0,60,0.00,,---,0.00,VWS V14.00,2013-07-02 06:42:00,
2013-07-02 01:47:00,67.4,53.0,30.04,NNE,30,0.0,0.0,60,0.00,,---,0.00,VWS V14.00,2013-07-02 06:47:00,
2013-07-02 01:52:00,67.5,53.6,30.04,NNE,30,0.0,0.0,61,0.00,,---,0.00,VWS V14.00,2013-07-02 06:52:00,
2013-07-02 01:57:00,67.5,53.1,30.04,NNE,30,0.0,0.0,60,0.00,,---,0.00,VWS V14.00,2013-07-02 06:57:00,
2013-07-02 02:02:00,67.3,53.0,30.04,NNE,30,0.0,0.0,60,0.00,,---,0.00,VWS V14.00,2013-07-02 07:02:00,
2013-07-02 02:07:00,67.0,52.7,30.04,NNE,30,0.0,0.0,60,0.00,,---,0.00,VWS V14.00,2013-07-02 07:07:00,
2013-07-02 02:12:00,66.9,52.6,30.04,NNE,29,0.0,0.0,60,0.00,,---,0.00,VWS V14.00,2013-07-02 07:12:00,
2013-07-02 02:17:00,66.9,53.0,30.04,NNE,30,0.0,0.0,61,0.00,,---,0.00,VWS V14.00,2013-07-02 07:17:00,
2013-07-02 02:22:00,67.2,53.3,30.04,NNE,30,0.0,0.0,61,0.00,,---,0.00,VWS V14.00,2013-07-02 07:22:00,
2013-07-02 02:27:00,67.6,53.7,30.04,NNE,30,0.0,0.0,61,0.00,,---,0.00,VWS V14.00,2013-07-02 07:27:00,
2013-07-02 02:32:00,67.5,53.6,30.04,NNE,30,0.0,0.0,61,0.00,,---,0.00,VWS V14.00,2013-07-02 07:32:00,
2013-07-02 02:37:00,67.3,53.8,30.04,NNE,30,0.0,0.0,62,0.00,,---,0.00,VWS V14.00,2013-07-02 07:37:00,
2013-07-02 02:42:00,67.1,53.7,30.04,NNE,30,0.0,0.0,62,0.00,,---,0.00,VWS V14.00,2013-07-02 07:42:00,
2013-07-02 02:47:00,66.9,53.5,30.04,NNE,30,0.0,0.0,62,0.00,,---,0.00,VWS V14.00,2013-07-02 07:47:00,
2013-07-02 02:52:00,66.6,53.6,30.04,NNE,30,0.0,0.0,63,0.00,,---,0.00,VWS V14.00,2013-07-02 07:52:00,
2013-07-02 02:57:00,66.5,54.0,30.04,NNE,30,0.0,0.0,64,0.00,,---,0.00,VWS V14.00,2013-07-02 07:57:00,
2013-07-02 03:02:00,66.7,53.7,30.04,NNE,29,0.0,0.0,63,0.00,,---,0.00,VWS V14.00,2013-07-02 08:02:00,
2013-07-02 03:07:00,66.8,53.8,30.04,NNE,30,0.0,0.0,63,0.00,,---,0.00,VWS V14.00,2013-07-02 08:07:00,
2013-07-02 03:12:00,66.6,53.6,30.04,NNE,30,0.0,0.0,63,0.00,,---,0.00,VWS V14.00,2013-07-02 08:12:00,
2013-07-02 03:17:00,66.4,53.4,30.04,NNE,30,0.0,0.0,63,0.00,,---,0.00,VWS V14.00,2013-07-02 08:17:00,
2013-07-02 03:22:00,66.2,53.7,30.04,NNE,30,0.0,0.0,64,0.00,,---,0.00,VWS V14.00,2013-07-02 08:22:00,
2013-07-02 03:27:00,66.0,53.5,30.03,NNE,30,0.0,0.0,64,0.00,,---,0.00,VWS V14.00,2013-07-02 08:27:00,
2013-07-02 03:32:00,65.9,53.8,30.03,NNE,30,0.0,0.0,65,0.00,,---,0.00,VWS V14.00,2013-07-02 08:32:00,
2013-07-02 03:37:00,65.8,54.1,30.03,NNE,30,0.0,0.0,66,0.00,,---,0.00,VWS V14.00,2013-07-02 08:37:00,
2013-07-02 03:42:00,65.9,54.2,30.03,NNE,30,0.0,0.0,66,0.00,,---,0.00,VWS V14.00,2013-07-02 08:42:00,
2013-07-02 03:47:00,66.1,54.0,30.03,NNE,29,0.0,0.0,65,0.00,,---,0.00,VWS V14.00,2013-07-02 08:47:00,
2013-07-02 03:52:00,66.2,54.1,30.03,NNE,30,0.0,0.0,65,0.00,,---,0.00,VWS V14.00,2013-07-02 08:52:00,
2013-07-02 03:57:00,66.1,54.0,30.03,NNE,30,0.0,0.0,65,0.00,,---,0.00,VWS V14.00,2013-07-02 08:57:00,
2013-07-02 04:02:00,66.2,54.1,30.03,NNE,30,0.0,0.0,65,0.00,,---,0.00,VWS V14.00,2013-07-02 09:02:00,
2013-07-02 04:05:00,66.2,54.1,30.03,NNE,29,0.0,0.0,65,0.00,,---,0.00,VWS V14.00,2013-07-02 09:05:00,
2013-07-02 04:11:00,66.2,54.1,30.03,NNE,30,0.0,0.0,65,0.00,,---,0.00,VWS V14.00,2013-07-02 09:11:00,
2013-07-02 04:16:00,66.2,54.1,30.04,NNE,30,0.0,0.0,65,0.00,,---,0.00,VWS V14.00,2013-07-02 09:16:00,
2013-07-02 04:21:00,66.1,54.0,30.04,NNE,29,0.0,0.0,65,0.00,,---,0.00,VWS V14.00,2013-07-02 09:21:00,
2013-07-02 04:26:00,66.1,54.4,30.04,NNE,30,0.0,0.0,66,0.00,,---,0.00,VWS V14.00,2013-07-02 09:26:00,
2013-07-02 04:31:00,66.1,54.4,30.04,NNE,30,0.0,0.0,66,0.00,,---,0.00,VWS V14.00,2013-07-02 09:31:00,
2013-07-02 04:36:00,66.1,54.4,30.04,NNE,30,0.0,0.0,66,0.00,,---,0.00,VWS V14.00,2013-07-02 09:36:00,
2013-07-02 04:41:00,66.3,54.2,30.04,NNE,30,0.0,0.0,65,0.00,,---,0.00,VWS V14.00,2013-07-02 09:41:00,
2013-07-02 04:46:00,66.5,54.4,30.04,NNE,30,0.0,0.0,65,0.00,,---,0.00,VWS V14.00,2013-07-02 09:46:00,
2013-07-02 04:51:00,66.6,54.1,30.04,NNE,29,0.0,0.0,64,0.00,,---,0.00,VWS V14.00,2013-07-02 09:51:00,
2013-07-02 04:56:00,66.6,54.1,30.04,NNE,30,0.0,0.0,64,0.00,,---,0.00,VWS V14.00,2013-07-02 09:56:00,
2013-07-02 05:02:00,66.6,54.1,30.04,NNE,30,0.0,0.0,64,0.00,,---,0.00,VWS V14.00,2013-07-02 10:02:00,
2013-07-02 05:07:00,66.6,54.1,30.04,NNE,29,0.0,0.0,64,0.00,,---,0.00,VWS V14.00,2013-07-02 10:07:00,
2013-07-02 05:12:00,66.5,54.0,30.05,NNE,30,0.0,0.0,64,0.00,,---,0.00,VWS V14.00,2013-07-02 10:12:00,
2013-07-02 05:17:00,66.3,53.8,30.05,NNE,29,0.0,0.0,64,0.00,,---,0.00,VWS V14.00,2013-07-02 10:17:00,
2013-07-02 05:22:00,66.1,53.2,30.05,NNE,29,0.0,0.0,63,0.00,,---,0.00,VWS V14.00,2013-07-02 10:22:00,
2013-07-02 05:27:00,66.0,53.5,30.05,NNE,30,0.0,0.0,64,0.00,,---,0.00,VWS V14.00,2013-07-02 10:27:00,
2013-07-02 05:33:00,66.0,53.5,30.05,NNE,30,0.0,0.0,64,0.00,,---,0.00,VWS V14.00,2013-07-02 10:33:00,
2013-07-02 05:38:00,65.9,53.4,30.05,NNE,30,0.0,0.0,64,0.00,,---,0.00,VWS V14.00,2013-07-02 10:38:00,
2013-07-02 05:44:00,65.7,53.2,30.06,NNE,30,0.0,0.0,64,0.00,,---,0.00,VWS V14.00,2013-07-02 10:44:00,
2013-07-02 05:49:00,65.7,53.2,30.06,NNE,30,0.0,0.0,64,0.00,,---,0.00,VWS V14.00,2013-07-02 10:49:00,
2013-07-02 05:54:00,65.7,53.2,30.06,NNE,30,0.0,0.0,64,0.00,,---,0.00,VWS V14.00,2013-07-02 10:54:00,
2013-07-02 06:00:00,65.7,53.2,30.06,NNE,30,0.0,0.0,64,0.00,,---,0.00,VWS V14.00,2013-07-02 11:00:00,
2013-07-02 06:05:00,65.7,53.2,30.06,NNE,30,0.0,0.0,64,0.00,,---,0.00,VWS V14.00,2013-07-02 11:05:00,
2013-07-02 06:10:00,65.7,53.2,30.06,NNE,30,0.0,0.0,64,0.00,,---,0.00,VWS V14.00,2013-07-02 11:10:00,
2013-07-02 06:15:00,65.7,53.2,30.07,NNE,30,0.0,0.0,64,0.00,,---,0.00,VWS V14.00,2013-07-02 11:15:00,
2013-07-02 06:20:00,65.7,53.2,30.07,NNE,30,0.0,0.0,64,0.00,,---,0.00,VWS V14.00,2013-07-02 11:20:00,
2013-07-02 06:25:00,65.7,53.2,30.07,NNE,30,0.0,0.0,64,0.00,,---,0.00,VWS V14.00,2013-07-02 11:25:00,
2013-07-02 06:30:00,65.7,53.2,30.07,NNE,30,0.0,0.0,64,0.00,,---,0.00,VWS V14.00,2013-07-02 11:30:00,
2013-07-02 06:36:00,65.7,53.2,30.07,NNE,30,0.0,0.0,64,0.00,,---,0.00,VWS V14.00,2013-07-02 11:36:00,
2013-07-02 06:41:00,65.7,53.2,30.07,NNE,30,0.0,0.0,64,0.00,,---,0.00,VWS V14.00,2013-07-02 11:41:00,
2013-07-02 06:46:00,65.7,53.2,30.07,NNE,30,0.0,0.0,64,0.00,,---,0.00,VWS V14.00,2013-07-02 11:46:00,
2013-07-02 06:51:00,65.7,53.2,30.07,NNE,30,0.0,0.0,64,0.00,,---,0.00,VWS V14.00,2013-07-02 11:51:00,
2013-07-02 06:56:00,65.7,53.2,30.07,NNE,30,0.0,0.0,64,0.00,,---,0.00,VWS V14.00,2013-07-02 11:56:00,
2013-07-02 07:02:00,65.7,53.2,30.07,NNE,30,0.0,0.0,64,0.00,,---,0.00,VWS V14.00,2013-07-02 12:02:00,
2013-07-02 07:07:00,65.7,53.2,30.07,NNE,30,0.0,0.0,64,0.00,,---,0.00,VWS V14.00,2013-07-02 12:07:00,
2013-07-02 07:12:00,65.7,53.2,30.07,NNE,30,0.0,0.0,64,0.00,,---,0.00,VWS V14.00,2013-07-02 12:12:00,
2013-07-02 07:17:00,65.7,53.2,30.07,NNE,30,0.0,0.0,64,0.00,,---,0.00,VWS V14.00,2013-07-02 12:17:00,
2013-07-02 07:22:00,65.7,53.2,30.07,NNE,30,0.0,0.0,64,0.00,,---,0.00,VWS V14.00,2013-07-02 12:22:00,
2013-07-02 07:28:00,65.7,53.2,30.08,NNE,30,0.0,0.0,64,0.00,,---,0.00,VWS V14.00,2013-07-02 12:28:00,
2013-07-02 07:33:00,65.7,53.2,30.08,NNE,30,0.0,0.0,64,0.00,,---,0.00,VWS V14.00,2013-07-02 12:33:00,
2013-07-02 07:38:00,66.8,54.7,30.08,NNE,24,0.0,0.0,65,0.00,,---,0.00,VWS V14.00,2013-07-02 12:38:00,
2013-07-02 07:41:00,67.0,54.4,30.08,NE,35,0.0,4.0,64,0.00,,---,0.00,VWS V14.00,2013-07-02 12:41:00,
2013-07-02 07:46:00,67.3,54.7,30.08,NNE,31,0.0,0.0,64,0.00,,---,0.00,VWS V14.00,2013-07-02 12:46:00,
2013-07-02 07:51:00,67.6,55.0,30.08,NNE,32,0.0,0.0,64,0.00,,---,0.00,VWS V14.00,2013-07-02 12:51:00,
2013-07-02 07:56:00,67.8,55.2,30.08,NNE,32,0.0,0.0,64,0.00,,---,0.00,VWS V14.00,2013-07-02 12:56:00,
2013-07-02 08:02:00,68.1,55.0,30.08,NNE,32,0.0,0.0,63,0.00,,---,0.00,VWS V14.00,2013-07-02 13:02:00,
2013-07-02 08:07:00,68.5,55.4,30.08,NNE,32,0.0,0.0,63,0.00,,---,0.00,VWS V14.00,2013-07-02 13:07:00,
2013-07-02 08:10:00,68.6,55.5,30.08,NNE,33,0.0,0.0,63,0.00,,---,0.00,VWS V14.00,2013-07-02 13:10:00,
2013-07-02 08:16:00,68.9,55.8,30.08,NNE,33,0.0,0.0,63,0.00,,---,0.00,VWS V14.00,2013-07-02 13:16:00,
2013-07-02 08:22:00,69.2,55.2,30.08,NNE,27,0.0,3.0,61,0.00,,---,0.00,VWS V14.00,2013-07-02 13:22:00,
2013-07-02 08:27:00,69.4,55.4,30.09,NNE,27,0.0,1.0,61,0.00,,---,0.00,VWS V14.00,2013-07-02 13:27:00,
2013-07-02 08:32:00,69.6,55.6,30.09,NNE,33,0.0,0.0,61,0.00,,---,0.00,VWS V14.00,2013-07-02 13:32:00,
2013-07-02 08:37:00,69.8,55.8,30.09,NE,41,0.0,0.0,61,0.00,,---,0.00,VWS V14.00,2013-07-02 13:37:00,
2013-07-02 08:42:00,70.2,55.7,30.09,NE,37,0.0,1.0,60,0.00,,---,0.00,VWS V14.00,2013-07-02 13:42:00,
2013-07-02 08:48:00,70.6,56.1,30.09,NE,37,0.0,0.0,60,0.00,,---,0.00,VWS V14.00,2013-07-02 13:48:00,
2013-07-02 08:54:00,70.9,55.9,30.09,NE,38,0.0,2.0,59,0.00,,---,0.00,VWS V14.00,2013-07-02 13:54:00,
2013-07-02 08:59:00,71.2,56.2,30.09,NE,38,0.0,1.0,59,0.00,,---,0.00,VWS V14.00,2013-07-02 13:59:00,
2013-07-02 09:04:00,71.5,56.4,30.09,NE,39,0.0,0.0,59,0.00,,---,0.00,VWS V14.00,2013-07-02 14:04:00,
2013-07-02 09:10:00,71.6,56.1,30.09,NE,39,0.0,1.0,58,0.00,,---,0.00,VWS V14.00,2013-07-02 14:10:00,
2013-07-02 09:15:00,71.7,55.7,30.09,NE,39,0.0,0.0,57,0.00,,---,0.00,VWS V14.00,2013-07-02 14:15:00,
2013-07-02 09:20:00,72.0,55.5,30.09,NE,39,0.0,1.0,56,0.00,,---,0.00,VWS V14.00,2013-07-02 14:20:00,
2013-07-02 09:26:00,72.6,56.0,30.09,NE,40,0.0,0.0,56,0.00,,---,0.00,VWS V14.00,2013-07-02 14:26:00,
2013-07-02 09:31:00,73.3,55.7,30.09,NE,39,0.0,0.0,54,0.00,,---,0.00,VWS V14.00,2013-07-02 14:31:00,
2013-07-02 09:37:00,73.5,56.9,30.09,NE,39,0.0,0.0,56,0.00,,---,0.00,VWS V14.00,2013-07-02 14:37:00,
2013-07-02 09:42:00,73.7,56.0,30.09,NE,39,0.0,0.0,54,0.00,,---,0.00,VWS V14.00,2013-07-02 14:42:00,
2013-07-02 09:48:00,74.3,56.6,30.09,NE,39,0.0,0.0,54,0.00,,---,0.00,VWS V14.00,2013-07-02 14:48:00,
2013-07-02 09:53:00,75.5,57.7,30.09,NE,39,0.0,0.0,54,0.00,,---,0.00,VWS V14.00,2013-07-02 14:53:00,
2013-07-02 09:58:00,76.6,55.5,30.09,NE,39,0.0,0.0,48,0.00,,---,0.00,VWS V14.00,2013-07-02 14:58:00,
2013-07-02 10:03:00,76.9,55.7,30.09,NE,39,0.0,0.0,48,0.00,,---,0.00,VWS V14.00,2013-07-02 15:03:00,
2013-07-02 10:09:00,76.7,55.5,30.09,NE,39,0.0,0.0,48,0.00,,---,0.00,VWS V14.00,2013-07-02 15:09:00,
2013-07-02 10:15:00,77.7,55.9,30.09,NE,39,0.0,0.0,47,0.00,,---,0.00,VWS V14.00,2013-07-02 15:15:00,
2013-07-02 10:21:00,79.1,56.0,30.09,NE,39,0.0,0.0,45,0.00,,---,0.00,VWS V14.00,2013-07-02 15:21:00,
2013-07-02 10:26:00,79.9,54.1,30.09,NE,39,0.0,0.0,41,0.00,,---,0.00,VWS V14.00,2013-07-02 15:26:00,
2013-07-02 10:31:00,80.5,54.7,30.09,NE,39,0.0,0.0,41,0.00,,---,0.00,VWS V14.00,2013-07-02 15:31:00,
2013-07-02 10:37:00,81.0,55.1,30.09,NE,53,0.0,0.0,41,0.00,,---,0.00,VWS V14.00,2013-07-02 15:37:00,
2013-07-02 10:42:00,81.6,53.6,30.09,NE,52,0.0,0.0,38,0.00,,---,0.00,VWS V14.00,2013-07-02 15:42:00,
2013-07-02 10:47:00,81.5,54.2,30.09,NE,53,0.0,0.0,39,0.00,,---,0.00,VWS V14.00,2013-07-02 15:47:00,
2013-07-02 10:52:00,81.1,54.5,30.09,NE,56,0.0,0.0,40,0.00,,---,0.00,VWS V14.00,2013-07-02 15:52:00,
2013-07-02 10:57:00,81.3,53.3,30.09,NE,56,0.0,0.0,38,0.00,,---,0.00,VWS V14.00,2013-07-02 15:57:00,
2013-07-02 11:02:00,81.4,54.8,30.09,West,280,0.0,1.0,40,0.00,,---,0.00,VWS V14.00,2013-07-02 16:02:00,
2013-07-02 11:07:00,80.0,53.5,30.09,West,281,0.0,0.0,40,0.00,,---,0.00,VWS V14.00,2013-07-02 16:07:00,
2013-07-02 11:12:00,80.3,53.8,30.09,NE,51,0.0,0.0,40,0.00,,---,0.00,VWS V14.00,2013-07-02 16:12:00,
2013-07-02 11:18:00,80.4,55.2,30.09,West,259,0.0,0.0,42,0.00,,---,0.00,VWS V14.00,2013-07-02 16:18:00,
2013-07-02 11:23:00,81.4,55.5,30.09,NNE,32,0.0,0.0,41,0.00,,---,0.00,VWS V14.00,2013-07-02 16:23:00,
2013-07-02 11:28:00,82.0,55.3,30.09,NNE,29,0.0,0.0,40,0.00,,---,0.00,VWS V14.00,2013-07-02 16:28:00,
2013-07-02 11:33:00,82.6,53.7,30.09,NNE,28,0.0,0.0,37,0.00,,---,0.00,VWS V14.00,2013-07-02 16:33:00,
2013-07-02 11:38:00,83.0,54.8,30.09,NNE,18,1.0,2.0,38,0.00,,---,0.00,VWS V14.00,2013-07-02 16:38:00,
2013-07-02 11:43:00,82.7,53.1,30.09,NE,41,3.0,7.0,36,0.00,,---,0.00,VWS V14.00,2013-07-02 16:43:00,
2013-07-02 11:48:00,81.7,53.7,30.09,NNE,22,0.0,0.0,38,0.00,,---,0.00,VWS V14.00,2013-07-02 16:48:00,
2013-07-02 11:53:00,82.7,55.2,30.09,NNE,19,0.0,2.0,39,0.00,,---,0.00,VWS V14.00,2013-07-02 16:53:00,
2013-07-02 11:58:00,82.3,54.2,30.09,NNE,19,0.0,0.0,38,0.00,,---,0.00,VWS V14.00,2013-07-02 16:58:00,
2013-07-02 12:03:00,81.7,52.9,30.09,NE,43,0.0,0.0,37,0.00,,---,0.00,VWS V14.00,2013-07-02 17:03:00,
2013-07-02 12:08:00,81.9,53.8,30.09,NW,319,0.0,2.0,38,0.00,,---,0.00,VWS V14.00,2013-07-02 17:08:00,
2013-07-02 12:13:00,81.9,53.8,30.09,WNW,287,0.0,2.0,38,0.00,,---,0.00,VWS V14.00,2013-07-02 17:13:00,
2013-07-02 12:18:00,82.4,52.8,30.09,NE,44,0.0,5.0,36,0.00,,---,0.00,VWS V14.00,2013-07-02 17:18:00,
2013-07-02 12:23:00,82.1,52.5,30.09,NNE,29,3.0,5.0,36,0.00,,---,0.00,VWS V14.00,2013-07-02 17:23:00,
2013-07-02 12:28:00,82.2,53.4,30.09,NNE,32,6.0,13.0,37,0.00,,---,0.00,VWS V14.00,2013-07-02 17:28:00,
2013-07-02 12:33:00,82.3,53.5,30.09,NE,35,0.0,3.0,37,0.00,,---,0.00,VWS V14.00,2013-07-02 17:33:00,
2013-07-02 12:38:00,82.8,54.6,30.09,NNE,21,0.0,0.0,38,0.00,,---,0.00,VWS V14.00,2013-07-02 17:38:00,
2013-07-02 12:43:00,84.0,54.2,30.09,NE,43,6.0,6.0,36,0.00,,---,0.00,VWS V14.00,2013-07-02 17:43:00,
2013-07-02 12:48:00,82.7,54.5,30.09,NE,38,0.0,4.0,38,0.00,,---,0.00,VWS V14.00,2013-07-02 17:48:00,
2013-07-02 12:53:00,83.0,54.1,30.09,ESE,104,0.0,0.0,37,0.00,,---,0.00,VWS V14.00,2013-07-02 17:53:00,
2013-07-02 12:58:00,83.3,53.6,30.09,NE,38,0.0,5.0,36,0.00,,---,0.00,VWS V14.00,2013-07-02 17:58:00,
2013-07-02 13:03:00,82.9,53.2,30.09,North,8,0.0,1.0,36,0.00,,---,0.00,VWS V14.00,2013-07-02 18:03:00,
2013-07-02 13:08:00,82.9,54.0,30.09,NNE,23,0.0,1.0,37,0.00,,---,0.00,VWS V14.00,2013-07-02 18:08:00,
2013-07-02 13:13:00,82.9,52.5,30.08,North,11,3.0,3.0,35,0.00,,---,0.00,VWS V14.00,2013-07-02 18:13:00,
2013-07-02 13:18:00,83.5,53.8,30.08,NNE,27,1.0,10.0,36,0.00,,---,0.00,VWS V14.00,2013-07-02 18:18:00,
2013-07-02 13:24:00,82.8,54.6,30.08,NE,38,0.0,0.0,38,0.00,,---,0.00,VWS V14.00,2013-07-02 18:24:00,
2013-07-02 13:30:00,82.5,53.6,30.08,NNE,31,0.0,3.0,37,0.00,,---,0.00,VWS V14.00,2013-07-02 18:30:00,
2013-07-02 13:35:00,82.5,54.4,30.08,WNW,286,0.0,0.0,38,0.00,,---,0.00,VWS V14.00,2013-07-02 18:35:00,
2013-07-02 13:40:00,82.7,55.2,30.08,NNE,32,2.0,3.0,39,0.00,,---,0.00,VWS V14.00,2013-07-02 18:40:00,
2013-07-02 13:46:00,83.1,55.6,30.08,NNE,13,4.0,10.0,39,0.00,,---,0.00,VWS V14.00,2013-07-02 18:46:00,
2013-07-02 13:51:00,83.4,54.4,30.08,NE,37,1.0,2.0,37,0.00,,---,0.00,VWS V14.00,2013-07-02 18:51:00,
2013-07-02 13:56:00,84.9,55.8,30.08,NNE,25,0.0,2.0,37,0.00,,---,0.00,VWS V14.00,2013-07-02 18:56:00,
2013-07-02 14:01:00,83.9,54.1,30.07,NE,40,0.0,1.0,36,0.00,,---,0.00,VWS V14.00,2013-07-02 19:01:00,
2013-07-02 14:06:00,83.4,53.7,30.07,NE,34,0.0,4.0,36,0.00,,---,0.00,VWS V14.00,2013-07-02 19:06:00,
2013-07-02 14:11:00,83.7,53.2,30.07,NNE,28,0.0,0.0,35,0.00,,---,0.00,VWS V14.00,2013-07-02 19:11:00,
2013-07-02 14:16:00,85.6,54.0,30.06,NNE,30,3.0,4.0,34,0.00,,---,0.00,VWS V14.00,2013-07-02 19:16:00,
2013-07-02 14:21:00,84.8,52.5,30.06,North,4,0.0,4.0,33,0.00,,---,0.00,VWS V14.00,2013-07-02 19:21:00,
2013-07-02 14:26:00,84.1,52.7,30.06,NE,36,10.0,10.0,34,0.00,,---,0.00,VWS V14.00,2013-07-02 19:26:00,
2013-07-02 14:32:00,82.4,52.8,30.06,NE,51,3.0,3.0,36,0.00,,---,0.00,VWS V14.00,2013-07-02 19:32:00,
2013-07-02 14:37:00,83.2,53.5,30.06,NNE,33,0.0,0.0,36,0.00,,---,0.00,VWS V14.00,2013-07-02 19:37:00,
2013-07-02 14:42:00,85.3,53.8,30.06,NNE,16,0.0,0.0,34,0.00,,---,0.00,VWS V14.00,2013-07-02 19:42:00,
2013-07-02 14:47:00,85.4,53.9,30.06,NE,38,1.0,2.0,34,0.00,,---,0.00,VWS V14.00,2013-07-02 19:47:00,
2013-07-02 14:53:00,84.4,51.3,30.06,NNE,23,0.0,1.0,32,0.00,,---,0.00,VWS V14.00,2013-07-02 19:53:00,
2013-07-02 14:58:00,84.2,53.6,30.05,ENE,62,0.0,0.0,35,0.00,,---,0.00,VWS V14.00,2013-07-02 19:58:00,
2013-07-02 15:03:00,84.1,53.5,30.05,North,8,4.0,12.0,35,0.00,,---,0.00,VWS V14.00,2013-07-02 20:03:00,
2013-07-02 15:08:00,84.3,54.5,30.05,NE,35,0.0,2.0,36,0.00,,---,0.00,VWS V14.00,2013-07-02 20:08:00,
2013-07-02 15:13:00,83.6,52.3,30.05,North,11,0.0,8.0,34,0.00,,---,0.00,VWS V14.00,2013-07-02 20:13:00,
2013-07-02 15:18:00,83.3,53.6,30.05,East,96,0.0,0.0,36,0.00,,---,0.00,VWS V14.00,2013-07-02 20:18:00,
2013-07-02 15:23:00,84.1,53.5,30.05,East,91,0.0,0.0,35,0.00,,---,0.00,VWS V14.00,2013-07-02 20:23:00,
2013-07-02 15:28:00,84.5,53.9,30.05,ENE,63,0.0,0.0,35,0.00,,---,0.00,VWS V14.00,2013-07-02 20:28:00,
2013-07-02 15:34:00,84.7,52.4,30.05,NNE,25,0.0,3.0,33,0.00,,---,0.00,VWS V14.00,2013-07-02 20:34:00,
2013-07-02 15:39:00,86.0,53.6,30.05,NE,34,6.0,6.0,33,0.00,,---,0.00,VWS V14.00,2013-07-02 20:39:00,
2013-07-02 15:45:00,84.6,51.5,30.04,NE,49,0.0,4.0,32,0.00,,---,0.00,VWS V14.00,2013-07-02 20:45:00,
2013-07-02 15:50:00,83.3,52.0,30.04,NE,39,1.0,1.0,34,0.00,,---,0.00,VWS V14.00,2013-07-02 20:50:00,
2013-07-02 15:55:00,83.0,51.8,30.04,NE,39,0.0,0.0,34,0.00,,---,0.00,VWS V14.00,2013-07-02 20:55:00,
2013-07-02 16:01:00,82.3,51.2,30.04,ENE,60,0.0,1.0,34,0.00,,---,0.00,VWS V14.00,2013-07-02 21:01:00,
2013-07-02 16:07:00,83.9,51.8,30.04,WNW,303,0.0,0.0,33,0.00,,---,0.00,VWS V14.00,2013-07-02 21:07:00,
2013-07-02 16:12:00,85.1,51.1,30.04,NNE,30,2.0,5.0,31,0.00,,---,0.00,VWS V14.00,2013-07-02 21:12:00,
2013-07-02 16:17:00,84.6,49.8,30.04,NNE,22,0.0,0.0,30,0.00,,---,0.00,VWS V14.00,2013-07-02 21:17:00,
2013-07-02 16:22:00,85.0,51.0,30.04,NE,38,0.0,4.0,31,0.00,,---,0.00,VWS V14.00,2013-07-02 21:22:00,
2013-07-02 16:27:00,84.8,50.8,30.04,NNE,31,0.0,5.0,31,0.00,,---,0.00,VWS V14.00,2013-07-02 21:27:00,
2013-07-02 16:32:00,85.0,50.1,30.04,NE,45,0.0,1.0,30,0.00,,---,0.00,VWS V14.00,2013-07-02 21:32:00,
2013-07-02 16:38:00,86.3,53.0,30.04,NE,48,0.0,0.0,32,0.00,,---,0.00,VWS V14.00,2013-07-02 21:38:00,
2013-07-02 16:43:00,86.2,52.9,30.04,North,0,5.0,5.0,32,0.00,,---,0.00,VWS V14.00,2013-07-02 21:43:00,
2013-07-02 16:49:00,84.3,52.1,30.04,North,359,6.0,6.0,33,0.00,,---,0.00,VWS V14.00,2013-07-02 21:49:00,
2013-07-02 16:54:00,83.4,51.3,30.04,NNE,27,0.0,0.0,33,0.00,,---,0.00,VWS V14.00,2013-07-02 21:54:00,
2013-07-02 16:59:00,83.9,51.8,30.04,NNE,22,0.0,2.0,33,0.00,,---,0.00,VWS V14.00,2013-07-02 21:59:00,
2013-07-02 17:04:00,83.7,51.6,30.04,NE,34,0.0,5.0,33,0.00,,---,0.00,VWS V14.00,2013-07-02 22:04:00,
2013-07-02 17:09:00,83.4,51.3,30.04,North,4,0.0,4.0,33,0.00,,---,0.00,VWS V14.00,2013-07-02 22:09:00,
2013-07-02 17:14:00,83.7,52.4,30.03,NNE,18,0.0,0.0,34,0.00,,---,0.00,VWS V14.00,2013-07-02 22:14:00,
2013-07-02 17:19:00,84.6,51.5,30.03,NNE,15,0.0,0.0,32,0.00,,---,0.00,VWS V14.00,2013-07-02 22:19:00,
2013-07-02 17:24:00,85.2,52.0,30.03,NNE,24,0.0,4.0,32,0.00,,---,0.00,VWS V14.00,2013-07-02 22:24:00,
2013-07-02 17:30:00,85.0,51.9,30.03,NNE,14,1.0,4.0,32,0.00,,---,0.00,VWS V14.00,2013-07-02 22:30:00,
2013-07-02 17:35:00,84.7,51.6,30.03,NNE,25,0.0,0.0,32,0.00,,---,0.00,VWS V14.00,2013-07-02 22:35:00,
2013-07-02 17:40:00,83.9,51.8,30.03,NE,34,0.0,4.0,33,0.00,,---,0.00,VWS V14.00,2013-07-02 22:40:00,
2013-07-02 17:45:00,83.1,51.9,30.03,NNE,30,0.0,0.0,34,0.00,,---,0.00,VWS V14.00,2013-07-02 22:45:00,
2013-07-02 17:51:00,82.9,51.7,30.03,NNE,23,0.0,3.0,34,0.00,,---,0.00,VWS V14.00,2013-07-02 22:51:00,
2013-07-02 17:56:00,82.9,51.7,30.03,NE,46,0.0,6.0,34,0.00,,---,0.00,VWS V14.00,2013-07-02 22:56:00,
2013-07-02 18:01:00,82.9,51.7,30.02,NE,37,0.0,5.0,34,0.00,,---,0.00,VWS V14.00,2013-07-02 23:01:00,
2013-07-02 18:06:00,83.1,51.0,30.02,NNE,33,0.0,0.0,33,0.00,,---,0.00,VWS V14.00,2013-07-02 23:06:00,
2013-07-02 18:11:00,83.1,50.2,30.02,NNE,23,0.0,6.0,32,0.00,,---,0.00,VWS V14.00,2013-07-02 23:11:00,
2013-07-02 18:16:00,83.0,51.0,30.02,NNE,30,0.0,1.0,33,0.00,,---,0.00,VWS V14.00,2013-07-02 23:16:00,
2013-07-02 18:21:00,83.3,52.0,30.02,NE,39,0.0,1.0,34,0.00,,---,0.00,VWS V14.00,2013-07-02 23:21:00,
2013-07-02 18:26:00,83.9,51.8,30.02,NNE,15,0.0,0.0,33,0.00,,---,0.00,VWS V14.00,2013-07-02 23:26:00,
2013-07-02 18:31:00,84.2,52.0,30.02,NE,41,0.0,0.0,33,0.00,,---,0.00,VWS V14.00,2013-07-02 23:31:00,
2013-07-02 18:36:00,84.1,51.1,30.02,ENE,74,0.0,4.0,32,0.00,,---,0.00,VWS V14.00,2013-07-02 23:36:00,
2013-07-02 18:41:00,83.2,51.1,30.02,NNE,30,0.0,2.0,33,0.00,,---,0.00,VWS V14.00,2013-07-02 23:41:00,
2013-07-02 18:46:00,82.8,51.6,30.02,NNE,28,2.0,4.0,34,0.00,,---,0.00,VWS V14.00,2013-07-02 23:46:00,
2013-07-02 18:52:00,82.9,51.7,30.02,NNE,31,0.0,0.0,34,0.00,,---,0.00,VWS V14.00,2013-07-02 23:52:00,
2013-07-02 18:56:00,83.0,51.0,30.02,NNE,25,0.0,2.0,33,0.00,,---,0.00,VWS V14.00,2013-07-02 23:56:00,
2013-07-02 19:01:00,82.7,49.9,30.02,NNE,20,0.0,3.0,32,0.00,,---,0.00,VWS V14.00,2013-07-03 00:01:00,
2013-07-02 19:06:00,82.6,49.8,30.02,East,79,0.0,0.0,32,0.00,,---,0.00,VWS V14.00,2013-07-03 00:06:00,
2013-07-02 19:09:00,82.7,50.7,30.02,East,79,0.0,0.0,33,0.00,,---,0.00,VWS V14.00,2013-07-03 00:09:00,
2013-07-02 19:13:00,82.7,49.0,30.03,ENE,57,0.0,0.0,31,0.00,,---,0.00,VWS V14.00,2013-07-03 00:13:00,
2013-07-02 19:18:00,82.5,48.0,30.03,NNE,18,0.0,3.0,30,0.00,,---,0.00,VWS V14.00,2013-07-03 00:18:00,
2013-07-02 19:23:00,82.4,48.8,30.03,NNE,18,0.0,0.0,31,0.00,,---,0.00,VWS V14.00,2013-07-03 00:23:00,
2013-07-02 19:26:00,82.4,47.9,30.03,NNE,19,0.0,0.0,30,0.00,,---,0.00,VWS V14.00,2013-07-03 00:26:00,
2013-07-02 19:31:00,82.3,48.7,30.03,NNE,20,0.0,0.0,31,0.00,,---,0.00,VWS V14.00,2013-07-03 00:31:00,
2013-07-02 19:36:00,81.9,47.5,30.03,NNE,13,0.0,1.0,30,0.00,,---,0.00,VWS V14.00,2013-07-03 00:36:00,
2013-07-02 19:41:00,81.5,49.7,30.03,NE,37,0.0,0.0,33,0.00,,---,0.00,VWS V14.00,2013-07-03 00:41:00,
2013-07-02 19:47:00,81.4,49.6,30.03,NE,37,0.0,0.0,33,0.00,,---,0.00,VWS V14.00,2013-07-03 00:47:00,
2013-07-02 19:52:00,81.2,49.4,30.03,NNE,33,0.0,0.0,33,0.00,,---,0.00,VWS V14.00,2013-07-03 00:52:00,
2013-07-02 19:58:00,80.9,49.1,30.03,NE,34,0.0,3.0,33,0.00,,---,0.00,VWS V14.00,2013-07-03 00:58:00,
2013-07-02 20:03:00,80.8,49.0,30.03,NE,34,0.0,0.0,33,0.00,,---,0.00,VWS V14.00,2013-07-03 01:03:00,
2013-07-02 20:04:00,80.7,49.0,30.03,NE,34,0.0,0.0,33,0.00,,---,0.00,VWS V14.00,2013-07-03 01:04:00,
2013-07-02 20:05:00,80.7,49.0,30.03,NE,34,0.0,0.0,33,0.00,,---,0.00,VWS V14.00,2013-07-03 01:05:00,
2013-07-02 20:10:00,80.4,49.5,30.03,NE,35,0.0,0.0,34,0.00,,---,0.00,VWS V14.00,2013-07-03 01:10:00,
2013-07-02 20:15:00,80.2,50.1,30.03,NE,35,0.0,0.0,35,0.00,,---,0.00,VWS V14.00,2013-07-03 01:15:00,
2013-07-02 20:16:00,80.1,50.0,30.03,NE,35,0.0,0.0,35,0.00,,---,0.00,VWS V14.00,2013-07-03 01:16:00,
2013-07-02 20:21:00,79.9,49.8,30.03,NE,34,0.0,0.0,35,0.00,,---,0.00,VWS V14.00,2013-07-03 01:21:00,
2013-07-02 20:26:00,79.6,49.6,30.03,NNE,33,0.0,0.0,35,0.00,,---,0.00,VWS V14.00,2013-07-03 01:26:00,
2013-07-02 20:32:00,79.4,50.2,30.04,NE,34,0.0,0.0,36,0.00,,---,0.00,VWS V14.00,2013-07-03 01:32:00,
2013-07-02 20:37:00,79.2,50.0,30.04,NNE,27,0.0,0.0,36,0.00,,---,0.00,VWS V14.00,2013-07-03 01:37:00,
2013-07-02 20:42:00,79.0,49.8,30.04,NNE,27,0.0,0.0,36,0.00,,---,0.00,VWS V14.00,2013-07-03 01:42:00,
2013-07-02 20:47:00,78.9,50.4,30.04,NNE,27,0.0,0.0,37,0.00,,---,0.00,VWS V14.00,2013-07-03 01:47:00,
2013-07-02 20:48:00,78.9,50.4,30.04,NNE,27,0.0,0.0,37,0.00,,---,0.00,VWS V14.00,2013-07-03 01:48:00,
2013-07-02 20:50:00,78.8,50.4,30.04,NNE,27,0.0,0.0,37,0.00,,---,0.00,VWS V14.00,2013-07-03 01:50:00,
2013-07-02 20:51:00,78.7,50.3,30.04,NNE,27,0.0,0.0,37,0.00,,---,0.00,VWS V14.00,2013-07-03 01:51:00,
2013-07-02 20:56:00,78.6,50.9,30.04,NNE,27,0.0,0.0,38,0.00,,---,0.00,VWS V14.00,2013-07-03 01:56:00,
2013-07-02 21:01:00,78.5,50.8,30.04,NNE,27,0.0,0.0,38,0.00,,---,0.00,VWS V14.00,2013-07-03 02:01:00,
2013-07-02 21:06:00,78.2,50.5,30.04,East,96,0.0,0.0,38,0.00,,---,0.00,VWS V14.00,2013-07-03 02:06:00,
2013-07-02 21:11:00,78.0,51.1,30.04,East,96,0.0,0.0,39,0.00,,---,0.00,VWS V14.00,2013-07-03 02:11:00,
2013-07-02 21:17:00,77.8,50.9,30.04,East,96,0.0,0.0,39,0.00,,---,0.00,VWS V14.00,2013-07-03 02:17:00,
2013-07-02 21:22:00,77.5,50.6,30.04,East,96,0.0,0.0,39,0.00,,---,0.00,VWS V14.00,2013-07-03 02:22:00,
2013-07-02 21:27:00,77.1,50.9,30.04,East,96,0.0,0.0,40,0.00,,---,0.00,VWS V14.00,2013-07-03 02:27:00,
2013-07-02 21:32:00,76.7,51.2,30.04,East,96,0.0,0.0,41,0.00,,---,0.00,VWS V14.00,2013-07-03 02:32:00,
2013-07-02 21:34:00,76.6,51.2,30.04,East,96,0.0,0.0,41,0.00,,---,0.00,VWS V14.00,2013-07-03 02:34:00,
2013-07-02 21:39:00,76.3,51.5,30.04,East,96,0.0,0.0,42,0.00,,---,0.00,VWS V14.00,2013-07-03 02:39:00,
2013-07-02 21:44:00,76.0,51.3,30.04,East,96,0.0,0.0,42,0.00,,---,0.00,VWS V14.00,2013-07-03 02:44:00,
2013-07-02 21:49:00,75.9,51.8,30.04,East,96,0.0,0.0,43,0.00,,---,0.00,VWS V14.00,2013-07-03 02:49:00,
2013-07-02 21:50:00,75.9,51.8,30.04,East,96,0.0,0.0,43,0.00,,---,0.00,VWS V14.00,2013-07-03 02:50:00,
2013-07-02 21:55:00,75.7,51.6,30.04,East,96,0.0,0.0,43,0.00,,---,0.00,VWS V14.00,2013-07-03 02:55:00,
2013-07-02 22:00:00,75.3,51.3,30.05,East,96,0.0,0.0,43,0.00,,---,0.00,VWS V14.00,2013-07-03 03:00:00,
2013-07-02 22:06:00,74.9,51.5,30.05,East,96,0.0,0.0,44,0.00,,---,0.00,VWS V14.00,2013-07-03 03:06:00,
2013-07-02 22:12:00,74.4,51.7,30.05,East,96,0.0,0.0,45,0.00,,---,0.00,VWS V14.00,2013-07-03 03:12:00,
2013-07-02 22:17:00,74.3,51.6,30.05,East,96,0.0,0.0,45,0.00,,---,0.00,VWS V14.00,2013-07-03 03:17:00,
2013-07-02 22:23:00,74.2,52.1,30.05,East,96,0.0,0.0,46,0.00,,---,0.00,VWS V14.00,2013-07-03 03:23:00,
2013-07-02 22:26:00,74.2,51.5,30.05,East,96,0.0,0.0,45,0.00,,---,0.00,VWS V14.00,2013-07-03 03:26:00,
2013-07-02 22:31:00,74.1,52.0,30.06,East,96,0.0,0.0,46,0.00,,---,0.00,VWS V14.00,2013-07-03 03:31:00,
2013-07-02 22:36:00,73.9,51.8,30.06,East,96,0.0,0.0,46,0.00,,---,0.00,VWS V14.00,2013-07-03 03:36:00,
2013-07-02 22:43:00,73.4,52.0,30.06,East,96,0.0,0.0,47,0.00,,---,0.00,VWS V14.00,2013-07-03 03:43:00,
2013-07-02 22:44:00,73.3,51.9,30.06,East,96,0.0,0.0,47,0.00,,---,0.00,VWS V14.00,2013-07-03 03:44:00,
2013-07-02 22:46:00,73.1,51.7,30.06,East,96,0.0,0.0,47,0.00,,---,0.00,VWS V14.00,2013-07-03 03:46:00,
2013-07-02 22:51:00,72.9,52.6,30.06,East,96,0.0,0.0,49,0.00,,---,0.00,VWS V14.00,2013-07-03 03:51:00,
2013-07-02 22:52:00,72.9,52.6,30.06,East,96,0.0,0.0,49,0.00,,---,0.00,VWS V14.00,2013-07-03 03:52:00,
2013-07-02 22:57:00,72.7,52.5,30.06,East,96,0.0,0.0,49,0.00,,---,0.00,VWS V14.00,2013-07-03 03:57:00,
2013-07-02 23:02:00,72.6,52.9,30.06,East,96,0.0,0.0,50,0.00,,---,0.00,VWS V14.00,2013-07-03 04:02:00,
2013-07-02 23:03:00,72.6,52.9,30.06,East,96,0.0,0.0,50,0.00,,---,0.00,VWS V14.00,2013-07-03 04:03:00,
2013-07-02 23:04:00,72.5,52.8,30.06,East,96,0.0,0.0,50,0.00,,---,0.00,VWS V14.00,2013-07-03 04:04:00,
2013-07-02 23:05:00,72.5,52.8,30.06,East,96,0.0,0.0,50,0.00,,---,0.00,VWS V14.00,2013-07-03 04:05:00,
2013-07-02 23:06:00,72.4,52.7,30.06,East,96,0.0,0.0,50,0.00,,---,0.00,VWS V14.00,2013-07-03 04:06:00,
2013-07-02 23:07:00,72.4,53.3,30.06,East,96,0.0,0.0,51,0.00,,---,0.00,VWS V14.00,2013-07-03 04:07:00,
2013-07-02 23:10:00,72.2,53.1,30.06,East,96,0.0,0.0,51,0.00,,---,0.00,VWS V14.00,2013-07-03 04:10:00,
2013-07-02 23:15:00,71.7,53.2,30.06,East,96,0.0,0.0,52,0.00,,---,0.00,VWS V14.00,2013-07-03 04:15:00,
2013-07-02 23:18:00,71.4,52.9,30.06,East,96,0.0,0.0,52,0.00,,---,0.00,VWS V14.00,2013-07-03 04:18:00,
2013-07-02 23:24:00,70.9,53.4,30.06,East,96,0.0,0.0,54,0.00,,---,0.00,VWS V14.00,2013-07-03 04:24:00,
2013-07-02 23:29:00,70.5,53.1,30.06,East,96,0.0,0.0,54,0.00,,---,0.00,VWS V14.00,2013-07-03 04:29:00,
2013-07-02 23:33:00,70.2,53.8,30.06,East,96,0.0,0.0,56,0.00,,---,0.00,VWS V14.00,2013-07-03 04:33:00,
2013-07-02 23:38:00,69.8,53.9,30.06,East,96,0.0,0.0,57,0.00,,---,0.00,VWS V14.00,2013-07-03 04:38:00,
2013-07-02 23:43:00,69.8,53.9,30.06,East,96,0.0,0.0,57,0.00,,---,0.00,VWS V14.00,2013-07-03 04:43:00,
2013-07-02 23:48:00,69.8,53.9,30.06,East,96,0.0,0.0,57,0.00,,---,0.00,VWS V14.00,2013-07-03 04:48:00,
2013-07-02 23:49:00,69.7,53.8,30.06,East,96,0.0,0.0,57,0.00,,---,0.00,VWS V14.00,2013-07-03 04:49:00,
2013-07-02 23:54:00,69.5,53.6,30.06,East,96,0.0,0.0,57,0.00,,---,0.00,VWS V14.00,2013-07-03 04:54:00,
2013-07-02 23:57:00,69.2,53.8,30.06,East,96,0.0,0.0,58,0.00,,---,0.00,VWS V14.00,2013-07-03 04:57:00,
2013-07-02 23:58:00,69.1,53.7,30.06,East,96,0.0,0.0,58,0.00,,---,0.00,VWS V14.00,2013-07-03 04:58:00,